Presure
171 200 201 194 195 190 192 194 192 194 193 196 199 198 203 206 210 211 230 224 226 229 216 210 221 223 260 263 125 112 263 219 300 297 289 289 289 280 276 275 263 268 270 279
217 224 211 192 192 191 192 194 198 202 202 206 214 215 224 227 225 221 234 243 228 227 265 255 250 284 279 263 263 308 299 284 281 281 264 263 257 280 277 276 279 285 293 268
227 223 215 204 203 207 216 224 221 219 226 217 214 277 282 277 275 271 263 251 240 267 276 267 258 247 284 303 288 272 269 259 254 247 263 292 303 308 307 309 297 274 133 483
232 231 234 230 206 213 230 200 199 202 277 275 242 225 207 211 219 231 231 240 236 233 233 246 296 297 275 289 276 251 240 260 283 298 273 256 259 275 263 198 275 261 332 454
253 236 227 229 240 266 271 274 223 202 198 205 199 208 242 241 239 242 223 237 314 308 303 292 279 277 260 255 266 220 285 258 242 240 244 254 260 240 237 278 307 300 317 470
250 248 193 243 213 191 200 201 210 214 234 247 242 240 240 263 289 323 318 304 296 284 279 268 247 247 246 243 305 257 255 252 261 262 261 270 267 262 277 264 273 288 305 317
190 195 200 208 204 218 220 222 236 318 316 356 340 334 330 318 305 291 291 267 252 235 231 274 272 204 268 253 244 262 254 237 239 239 241 240 248 249 251 255 263 247 268 300
211 217 235 243 300 348 357 352 344 337 325 316 329 315 299 277 237 223 256 268 267 268 290 252 260 241 230 244 240 231 235 189 238 228 230 237 239 245 248 248 251 255 215 287
344 340 324 288 229 225 216 223 214 230 271 221 277 279 286 279 283 290 295 304 271 233 236 247 251 231 208 234 227 216 222 225 224 202 223 222 228 234 231 243 241 248 246 252
296 300 298 298 302 309 307 282 299 301 301 279 247 227 251 280 243 245 257 231 251 243 232 232 229 220 221 209 216 216 216 219 221 217 215 214 213 216 216 230 236 235 244 236
271 255 253 252 246 241 248 250 246 243 240 238 233 222 223 235 225 228 230 215 220 218 202 225 219 209 207 213 208 197 199 209 219 221 224 226 207 211 215 216 217 221 225 228
210 204 209 189 181 214 214 206 222 217 158 197 193 163 207 209 187 202 187 208 208 205 210 210 193 191 205 213 199 202 205 204 202 217 216 206 202 221 222 222 218 225 221 221
201 193 198 204 200 198 197 186 212 208 210 204 201 190 200 200 204 202 197 183 200 203 200 199 198 198 196 200 204 197 207 212 212 206 206 222 203 197 212 216 219 214 226 209
166 190 192 201 192 189 220 190 220 199 201 192 190 188 211 191 199 204 192 185 197 189 169 183 185 187 187 166 168 192 202 198 211 206 189 193 214 218 223 221 226 216 207 173
178 171 194 194 184 188 188 196 153 174 140 181 183 202 207 207 205 199 166 205 188 185 189 182 157 184 204 201 211 209 210 154 201 190 186 218 211 219 193 210 216 213 217 209
166 188 184 172 207 182 179 196 185 197 168 204 201 194 134 182 135 136 135 133 190 204 195 180 181 181 181 180 214 211 209 209 206 188 200 211 201 194 204 198 223 218 214 224
177 193 164 168 187 173 187 174 177 167 217 206 183 179 187 195 206 196 204 183 184 202 170 196 200 205 186 213 204 172 173 193 173 177 187 217 182 172 198 197 212 206 206 206
194 191 179 183 202 200 163 165 177 183 171 165 205 204 193 195 195 182 194 211 190 167 161 187 197 197 187 193 201 164 193 192 187 186 209 190 172 159 196 207 192 201 221 202
173 209 151 195 183 157 214 210 205 157 170 196 161 181 161 163 192 200 169 190 186 182 183 178 186 200 188 194 191 187 196 190 189 203 201 186 172 199 207 200 212 217 202 199
196 187 202 171 215 167 193 151 163 216 181 187 162 168 169 150 169 196 182 168 172 184 182 189 178 169 157 177 165 164 158 179 179 170 180 185 194 201 201 174 198 198 206 216
192 189 184 166 151 186 202 200 189 187 162 185 164 190 193 180 180 191 179 177 186 185 186 172 180 183 175 192 170 183 182 192 188 189 197 203 190 180 186 192 189 202 194 206
195 163 170 146 180 195 198 190 172 176 184 181 179 181 175 205 200 172 189 184 180 146 181 208 193 169 171 202 172 172 153 201 202 187 173 191 186 180 187 193 197 201 201 201
196 186 195 139 177 166 141 189 178 147 180 193 190 182 186 186 189 180 136 184 166 141 198 166 176 145 164 186 197 176 183 166 172 205 209 185 192 178 166 184 173 171 204 204
182 175 179 150 171 183 205 200 206 185 181 190 190 144 190 187 177 135 123 189 190 192 187 192 190 157 205 169 173 127 206 202 211 140 171 211 153 210 157 166 217 220 207 130
139 167 164 184 140 171 192 170 168 185 191 187 84 176 172 110 154 193 198 161 200 200 200 183 171 214 198 199 210 169 192 204 193 203 178 205 167 183 235 185 228 186 168 197
182 185 174 86 191 117 162 181 174 188 190 146 191 198 117 192 201 205 208 209 189 199 214 188 211 204 152 208 205 204 169 191 189 217 193 124 221 228 160 248 226 264 263 230
Wind_Speed
51 62 70 67 67 64 65 68 70 72 72 74 76 79 81 80 83 85 84 86 86 83 80 78 83 83 74 71 55 56 62 44 38 37 39 38 39 39 40 42 46 52 58 60
61 65 68 64 66 68 70 71 74 76 75 77 79 82 83 82 83 84 80 74 77 77 64 66 70 59 57 57 53 28 28 27 28 28 30 35 34 44 45 47 54 59 69 53
62 63 62 64 66 68 71 70 71 71 68 69 73 58 52 51 49 50 51 54 57 54 50 52 54 54 37 24 25 23 21 22 24 24 30 37 37 33 37 41 48 60 38 48
60 61 62 62 62 64 65 60 61 62 53 49 56 63 59 61 60 57 56 54 53 52 51 52 31 24 24 17 15 20 23 19 25 23 25 27 29 31 34 30 39 53 58 42
57 54 53 57 59 60 58 54 53 56 55 57 58 61 59 55 53 51 45 48 22 22 20 17 16 16 16 18 16 24 16 15 19 22 24 24 24 32 36 37 54 56 68 40
30 32 30 38 39 42 45 47 51 53 59 58 57 54 52 50 38 15 11 14 14 12 11 11 11 12 14 16 13 10 15 15 19 23 26 30 30 31 41 34 44 54 65 70
27 30 33 36 37 43 44 46 51 25 27 8 13 11 8 7 7 8 8 7 7 7 9 6 6 20 6 11 9 20 20 16 19 23 26 30 33 34 36 38 41 39 48 64
25 28 33 36 29 11 7 6 4 5 4 5 3 1 2 4 2 6 6 6 3 3 3 7 11 7 6 15 13 14 20 27 23 25 30 34 36 40 42 43 43 47 32 66
4 2 4 6 7 8 9 7 8 5 6 4 8 6 5 4 3 3 1 1 11 9 10 16 21 11 14 19 15 15 18 21 23 34 29 32 36 40 40 44 43 45 42 45
14 14 14 13 12 10 10 14 15 14 14 19 22 15 23 19 20 21 27 10 27 23 15 15 15 11 13 14 15 17 18 20 22 25 27 30 32 35 36 42 44 44 48 39
30 32 32 34 33 31 34 35 34 33 31 29 26 15 17 26 21 22 23 9 15 15 9 18 15 11 13 14 16 21 24 22 23 26 28 31 33 36 38 39 39 39 38 40
18 14 17 2 6 19 18 8 22 16 15 5 8 15 8 11 11 8 14 12 12 10 11 11 13 18 17 15 20 24 26 28 28 22 25 33 35 30 34 35 37 39 40 39
13 9 9 8 5 3 3 9 14 12 14 6 5 12 8 9 11 6 7 16 10 10 11 13 16 18 22 21 20 27 22 20 22 29 30 28 34 38 35 36 36 38 39 34
7 8 7 5 5 6 15 6 15 3 4 6 9 9 12 8 6 9 13 18 14 19 30 25 25 28 30 29 30 33 29 32 27 32 41 42 32 31 31 31 34 34 38 36
13 13 6 5 11 11 12 5 19 14 24 13 13 3 8 7 5 5 26 7 17 21 22 23 31 27 23 27 26 27 29 38 35 36 36 38 35 42 39 37 34 39 32 37
16 7 19 20 8 20 23 10 16 10 21 2 6 14 32 22 34 34 35 36 22 16 22 30 33 35 36 39 28 32 30 29 33 44 42 44 41 47 44 45 45 45 39 43
24 14 26 28 22 29 25 22 26 25 13 16 24 28 25 15 13 20 18 27 25 19 32 27 26 29 36 31 32 43 42 39 44 44 48 46 49 40 47 48 50 46 46 43
16 16 28 20 15 19 27 32 30 27 35 33 14 17 30 29 26 26 31 28 25 35 38 32 28 33 38 37 34 46 42 43 48 46 51 49 49 40 52 54 52 53 52 50
28 25 31 22 28 26 22 20 18 32 41 22 37 39 39 40 29 28 33 22 31 34 32 36 33 44 40 38 36 39 46 41 44 51 54 48 49 54 61 56 63 62 57 54
30 28 32 36 30 28 20 36 31 23 33 28 44 47 46 37 47 42 32 44 39 30 35 36 38 49 49 48 55 56 50 55 56 61 57 55 53 63 63 60 60 61 64 65
34 33 40 34 41 40 30 23 27 32 41 35 54 37 35 39 40 43 49 50 44 41 43 49 44 51 53 55 56 59 61 63 58 55 60 66 60 62 61 63 65 70 66 68
43 45 42 49 46 43 37 29 37 43 41 40 44 48 44 50 48 49 45 50 55 47 56 68 63 60 64 61 61 63 51 69 69 59 64 65 64 66 65 65 67 70 70 72
55 51 54 41 47 49 43 40 43 49 41 48 46 47 45 44 50 44 41 51 57 54 69 70 60 46 57 61 69 67 71 74 75 73 75 69 70 68 59 71 60 54 74 71
53 50 58 51 62 53 57 57 59 48 46 51 55 46 60 56 50 46 41 66 62 67 69 76 75 58 82 74 77 48 76 72 81 53 62 83 47 80 50 57 83 84 80 43
68 70 67 64 43 56 64 55 51 58 56 53 22 57 58 44 57 68 74 62 79 81 83 72 67 89 78 81 91 62 83 85 86 78 65 83 62 80 102 70 86 73 52 79
76 84 79 33 68 37 52 62 60 59 61 59 68 78 48 67 80 84 86 84 81 77 88 78 89 83 64 89 82 84 68 78 92 106 98 40 89 93 58 93 83 90 87 78
Wind_Direction
240 241 243 250 253 255 259 261 262 264 265 269 271 272 275 276 278 279 277 279 279 278 282 284 286 288 289 290 273 268 294 279 293 298 301 301 302 305 301 296 289 285 281 282
241 243 244 251 254 257 259 262 265 267 270 272 273 274 274 273 274 276 278 281 282 283 284 285 286 291 293 293 293 290 294 302 305 304 305 312 310 315 314 311 303 304 295 299
246 247 248 250 253 256 259 261 263 266 268 269 270 279 281 281 280 279 280 283 284 286 286 286 289 291 291 297 298 302 302 300 306 300 316 324 324 327 325 324 317 311 295 322
249 251 253 255 253 257 262 261 264 268 273 274 272 273 278 280 281 282 284 285 286 288 289 287 285 291 295 299 294 290 294 326 341 347 342 338 336 350 348 320 318 312 348 341
250 252 253 256 261 263 266 268 263 266 272 274 277 279 278 281 283 284 280 283 277 280 287 292 292 289 274 278 303 290 349 349 338 334 336 340 343 332 329 2 13 4 7 360
246 249 254 256 256 264 266 271 272 277 275 272 275 277 279 281 282 285 277 277 289 303 286 279 279 290 291 293 335 13 17 8 18 16 12 16 10 3 7 354 8 15 18 20
263 262 262 264 271 270 273 275 274 279 276 266 266 263 244 257 274 299 290 267 263 281 297 274 309 277 316 54 30 57 47 3 5 1 3 356 0 359 1 3 7 1 13 25
262 262 260 259 265 282 301 298 300 295 322 357 267 99 95 128 212 245 252 244 284 3 3 59 69 57 351 58 46 9 24 302 15 357 359 4 3 6 7 7 9 13 351 26
270 147 122 163 212 225 244 247 267 265 84 250 86 93 121 111 107 81 89 73 79 82 74 74 77 50 308 57 37 345 6 8 0 312 356 352 355 2 358 6 4 11 11 16
120 115 110 106 107 104 106 104 95 93 95 95 95 102 92 88 91 90 87 84 89 84 71 71 63 32 28 346 6 3 357 356 359 349 344 341 338 343 343 358 3 3 10 9
104 105 103 102 102 100 95 96 96 95 95 95 96 105 91 81 76 73 71 68 60 49 328 56 48 8 347 7 344 318 320 335 354 356 358 6 335 338 343 345 347 352 357 2
93 96 102 8 279 107 106 117 104 112 276 232 260 274 111 81 278 55 296 52 44 23 29 23 307 304 347 1 334 338 338 337 333 347 349 336 333 342 343 348 347 355 352 351
85 85 91 106 140 185 232 285 103 97 97 111 92 280 50 34 39 35 344 305 356 354 342 337 334 334 332 331 327 325 322 328 329 327 329 348 331 326 333 341 343 340 354 340
328 360 5 92 355 324 107 341 101 49 58 325 324 313 76 337 12 23 329 299 330 297 294 310 324 324 323 296 298 321 321 320 323 321 324 324 326 333 341 339 347 338 331 304
340 331 286 282 315 316 315 294 279 297 272 309 307 42 55 42 24 306 289 330 314 316 319 306 286 312 316 318 318 317 322 289 319 319 315 330 325 330 310 322 330 331 330 326
318 269 306 317 202 308 314 246 307 297 306 201 226 273 275 293 277 277 277 277 306 328 312 311 312 313 314 317 323 317 322 316 319 318 319 325 320 317 323 318 334 331 323 335
294 282 312 315 297 309 290 309 304 306 347 265 280 294 302 283 308 285 301 299 299 313 307 315 312 318 306 323 316 311 312 311 309 312 311 326 311 310 315 318 325 320 320 317
271 283 272 291 290 275 295 301 297 272 303 297 307 309 280 299 300 293 313 321 291 302 302 312 316 313 302 312 315 306 304 304 301 304 324 303 306 295 312 320 315 316 324 310
282 296 291 283 294 287 299 296 293 295 295 278 296 278 298 301 296 303 301 293 300 299 296 298 309 317 304 311 306 300 311 304 307 320 315 310 303 313 322 314 318 319 309 308
302 287 294 271 286 282 259 290 292 297 267 277 293 288 289 289 289 303 287 288 289 286 291 302 291 291 299 292 299 299 296 296 298 299 296 298 314 314 312 304 309 310 314 314
293 291 288 284 291 288 292 287 265 293 274 277 285 291 292 273 293 294 296 289 298 285 287 291 277 288 284 301 289 301 302 302 300 301 307 305 297 299 297 303 302 309 305 309
294 269 290 284 276 291 285 278 283 258 279 277 285 290 297 297 297 288 289 286 293 283 299 303 300 281 287 299 278 281 298 300 299 288 290 295 290 291 292 297 300 302 301 300
293 293 292 282 289 288 294 284 274 289 276 297 298 295 292 290 292 278 283 285 292 293 299 285 297 285 296 291 295 276 283 294 287 297 297 285 287 286 289 289 299 297 295 295
292 282 285 288 278 289 292 289 283 288 286 294 291 285 293 292 281 284 280 297 295 298 297 297 297 293 299 297 292 289 300 296 301 292 301 300 288 292 288 289 294 295 294 283
285 288 285 286 286 291 289 291 294 292 293 286 291 274 270 284 290 294 295 288 295 293 294 289 292 298 296 297 300 289 298 301 296 293 290 295 288 286 297 285 294 298 295 293
285 282 278 282 290 273 288 285 271 287 286 290 293 292 280 292 294 291 290 291 287 292 293 295 296 294 291 295 295 295 296 294 288 296 291 292 292 292 296 291 291 288 285 288